Regional Weather Roundup
Issued by NWS

Home | Current Version | Previous Version | Graphics & Text | Print | Product List | Glossary On
Versions: 1 2 3 4 5 6 7 8 9 10 11 12 13 14 15 16 17 18 19 20 21 22 23 24 25 26 27 28 29 30 31 32 33 34 35 36 37 38 39 40 41 42 43 44 45 46 47 48 49 50
000
ASUS43 KLSX 070257
RWRMO

WEATHER SUMMARY FOR MISSOURI
NATIONAL WEATHER SERVICE SPRINGFIELD MO
900 PM CST TUE DEC 06 2016

NOTE: "FAIR" INDICATES FEW OR NO CLOUDS BELOW 12,000 FEET WITH NO
       SIGNIFICANT WEATHER AND/OR OBSTRUCTIONS TO VISIBILITY.
       CURRENT SKY AND/OR WEATHER CONDITIONS ARE NOT AVAILABLE FOR
       CHILLICOTHE AND FARMINGTON.

MOZ001>031-035>038-043-044-053-054-070400-
...NORTHERN AND WESTERN MISSOURI...

CITY           SKY/WX    TMP DP  RH WIND       PRES   REMARKS
KANSAS CTY INT MOCLDY    28  14  55 W6        30.13R WCI  22
LEE`S SUMMIT   PTCLDY    32  15  49 NW8       30.12F WCI  25
ST JOSEPH      PTCLDY    28  16  60 W6        30.14R WCI  22
CHILLICOTHE      N/A     30  15  53 VRB5      30.14R WCI  25

$$
MOZ066>068-077>081-088>096-101>105-070400-
...SOUTHWEST MISSOURI...

CITY           SKY/WX    TMP DP  RH WIND       PRES   REMARKS
SPRINGFIELD    MOCLDY    33  20  58 CALM      30.10S
JOPLIN         CLOUDY    31  21  66 CALM      30.13S
BRANSON        CLOUDY    34  25  69 N3        30.11S

$$
MOZ032>034-039>042-045>050-055>058-069>072-070400-
...CENTRAL MISSOURI...

CITY           SKY/WX    TMP DP  RH WIND       PRES   REMARKS
COLUMBIA       NOT AVBL
JEFFERSON CITY PTCLDY    34  21  59 NW7       30.13R WCI  28
ROLLA          PTCLDY    32  20  61 NW10      30.08R WCI  24
SEDALIA        PTCLDY    33  17  51 NW9       30.14R WCI  25
WARRENSBURG    MOCLDY    32  18  55 CALM      30.13S

$$
MOZ051-052-059>065-070400-
...EAST CENTRAL MISSOURI...

CITY           SKY/WX    TMP DP  RH WIND       PRES   REMARKS
ST LOUIS INTL  MOCLDY    35  22  58 W8        30.10R WCI  29

$$
MOZ072>076-082>087-097>100-106>115-070400-
...SOUTH CENTRAL AND SOUTHEAST MISSOURI...

CITY           SKY/WX    TMP DP  RH WIND       PRES   REMARKS
CAPE GIRARDEAU PTCLDY    37  33  85 W5        30.11R
POPLAR BLUFF   MOCLDY    38  34  85 CALM      30.11R
WEST PLAINS    PTCLDY    35  24  64 NW5       30.11R

$$



USA.gov is the U.S. government's official web portal to all federal, state and local government web resources and services.